Wind_Speed
39 40 40 39 34 33 26 27 28 27 28 29 23 29 48 73 79 86 82 78 77 78 79 77 75 80 71 70 69 65 61 55 53 56 51 54 51 46 45 40 35 30 28 27 25
39 40 41 42 37 34 35 32 33 31 30 34 33 36 42 47 65 88 90 85 86 83 81 83 81 85 79 76 70 67 68 61 58 61 55 54 53 48 47 44 39 34 34 32 31
39 41 41 41 41 41 37 35 36 35 37 37 36 42 42 36 51 50 84 100 92 86 88 84 87 88 86 85 79 74 69 72 63 63 61 55 53 52 51 49 45 38 39 38 35
43 45 44 44 45 45 44 44 43 44 39 44 43 45 43 45 52 60 59 73 91 101 93 93 89 89 87 85 87 81 78 74 71 66 68 63 61 56 54 52 47 42 43 43 40
49 48 48 50 50 49 48 46 49 49 53 50 51 52 54 56 66 51 69 63 70 90 105 99 97 93 90 89 90 87 82 77 78 65 67 63 63 59 57 52 51 46 44 44 46
51 54 53 55 55 56 53 52 52 52 52 56 56 60 60 62 69 59 62 65 67 73 89 105 107 104 96 97 92 94 88 85 82 72 73 73 70 60 60 58 51 51 48 47 48
52 56 58 58 58 58 58 56 56 58 59 62 61 64 65 70 71 60 68 67 71 79 85 106 110 103 100 100 97 99 96 90 89 82 75 73 71 67 67 65 54 56 50 51 50
56 58 60 60 59 59 60 61 60 64 66 68 67 68 74 78 80 74 69 69 71 75 81 95 112 109 111 106 102 103 103 96 90 88 86 77 75 72 68 68 64 56 49 54 54
56 56 59 60 59 61 62 62 62 63 67 70 72 74 76 84 78 74 69 74 77 80 86 98 110 120 118 109 105 105 106 97 97 91 88 76 77 74 73 69 66 64 57 53 55
61 61 58 56 54 59 59 60 64 66 71 73 74 77 84 82 71 70 68 71 73 82 90 99 106 120 124 116 113 105 104 100 100 94 91 82 77 78 75 68 71 69 67 61 58
59 57 56 58 57 60 62 63 65 67 69 72 73 81 87 78 70 67 67 69 76 84 88 96 107 107 123 121 120 113 109 102 102 101 96 91 88 79 78 73 72 67 67 64 65
53 56 57 59 58 63 65 64 64 65 72 69 76 84 81 72 67 64 63 64 74 85 98 101 107 109 113 122 123 120 113 105 108 102 102 97 95 92 83 75 75 76 74 72 67
59 58 57 59 61 66 64 63 64 67 71 73 78 85 72 70 64 59 55 59 70 83 94 103 107 109 113 126 126 123 115 110 109 106 104 105 97 96 88 80 75 75 73 74 67
62 58 59 62 65 66 64 65 66 68 71 74 78 80 69 66 57 50 48 57 69 80 92 101 111 113 114 125 125 122 110 113 114 110 105 112 100 99 93 83 77 77 69 63 65
64 63 61 61 63 68 64 64 67 71 72 74 81 74 68 62 49 41 43 53 67 81 88 102 113 111 113 125 121 119 120 114 109 112 108 111 106 100 96 86 82 77 81 78 74
65 63 65 67 66 67 62 65 68 71 72 77 81 70 67 55 40 34 39 51 66 77 85 102 112 113 110 112 118 119 121 115 115 112 112 107 106 104 99 88 91 77 74 81 77
64 65 66 68 68 62 62 65 68 71 72 78 75 67 61 47 33 31 37 48 62 76 87 101 106 107 111 117 108 95 104 114 111 115 114 113 110 103 103 97 93 91 80 75 80
61 62 62 59 59 59 62 64 69 72 76 79 72 64 55 40 28 28 36 47 62 77 88 95 98 109 113 104 97 88 92 103 116 109 109 110 114 109 102 100 99 95 88 83 82
56 56 53 54 55 57 62 64 69 74 76 77 67 64 50 36 24 26 36 47 60 76 84 92 102 105 110 101 97 98 94 98 107 117 111 108 109 109 107 107 104 98 94 90 86
50 50 53 52 55 57 62 65 68 72 77 73 65 61 49 32 20 23 35 46 59 76 86 92 98 105 108 107 101 94 99 100 104 111 118 107 109 105 108 110 106 104 97 91 93
48 49 50 51 54 59 62 62 68 70 74 69 63 58 48 29 18 22 34 45 62 77 87 92 103 106 120 109 103 100 100 98 101 112 118 107 102 104 107 109 108 104 101 95 92
46 45 47 49 54 58 58 61 65 68 69 64 62 54 44 26 17 23 35 48 66 78 89 97 104 108 122 112 107 104 97 98 98 100 106 116 105 104 108 108 104 105 105 103 98
39 42 45 49 51 52 54 58 63 66 66 61 61 54 41 24 17 23 37 50 66 81 92 99 102 109 116 119 113 107 100 96 96 97 95 100 107 106 106 108 108 102 102 105 104
35 38 44 46 46 47 51 56 62 63 63 61 60 51 37 23 17 24 37 51 66 82 88 93 103 107 111 121 116 113 107 102 100 98 97 94 98 103 104 107 108 104 99 100 104
31 36 36 39 40 46 51 57 59 60 62 61 57 48 33 21 17 24 36 49 64 78 87 94 97 100 105 121 120 118 108 107 105 105 99 96 97 98 101 102 101 102 104 100 98
27 30 33 34 38 46 51 57 56 60 61 61 55 44 29 19 17 25 35 47 61 76 85 90 95 98 101 115 118 115 114 110 107 105 107 104 101 97 97 98 98 97 102 105 107
26 27 30 33 38 45 50 54 54 58 60 58 53 39 25 18 17 23 33 44 58 71 82 87 90 94 98 108 124 115 117 117 110 105 99 98 102 97 98 96 95 98 101 103 104
Wind_Direction
304 305 306 307 308 305 301 299 297 295 295 290 263 246 248 238 229 230 231 230 232 230 225 225 220 213 214 216 217 215 220 220 227 223 222 224 224 234 234 242 240 248 236 241 243
303 302 305 305 302 301 301 300 297 294 297 287 289 269 265 247 241 235 230 230 230 233 229 228 226 217 215 216 216 218 222 222 221 227 221 228 228 232 228 234 230 238 235 238 240
296 298 301 300 297 295 294 292 290 289 290 284 289 283 288 254 231 249 235 233 230 231 233 231 229 220 220 218 218 223 224 225 221 227 227 224 230 230 227 232 234 242 236 236 233
294 292 290 291 291 289 291 290 288 290 290 289 292 285 284 262 265 247 235 237 233 231 230 231 230 228 225 220 221 222 224 228 223 227 222 230 233 229 228 229 229 237 236 236 236
289 290 286 286 286 287 289 289 290 292 293 294 290 289 282 274 278 247 237 234 242 239 233 230 230 228 227 227 224 220 227 225 224 228 227 224 226 227 222 228 226 235 237 238 239
286 288 288 286 288 290 289 292 294 293 293 293 292 291 288 278 279 234 230 236 237 237 239 233 231 232 229 229 227 223 224 226 224 222 230 228 229 222 229 230 233 231 238 241 241
282 290 289 289 289 291 291 291 291 293 292 294 293 293 287 279 277 247 257 263 249 238 236 236 228 226 228 226 227 221 223 224 226 222 225 227 228 228 226 227 229 237 238 240 243
287 286 291 291 290 291 293 293 294 291 291 292 294 289 285 280 276 280 272 257 247 237 232 230 229 222 224 225 225 225 222 222 224 228 225 228 227 233 228 234 235 231 238 241 246
287 287 288 290 289 291 290 291 294 293 294 294 293 292 287 280 282 278 269 258 248 239 230 226 228 226 221 222 223 224 223 221 223 226 228 226 229 227 232 234 235 234 234 239 246
284 285 284 287 287 292 292 293 293 297 296 296 294 291 286 289 288 281 271 257 244 236 232 223 224 226 220 221 225 224 224 219 221 224 225 223 224 228 228 233 234 236 238 241 245
289 287 288 290 287 292 295 296 297 298 298 298 297 294 293 297 291 278 264 251 240 233 229 223 220 220 224 218 221 222 219 222 221 224 222 221 226 228 226 231 234 236 237 241 242
292 290 292 289 288 292 295 298 299 299 302 301 299 295 302 301 290 278 262 248 234 227 219 220 218 218 221 215 219 222 220 221 219 223 223 223 228 231 229 233 237 240 240 241 246
298 297 294 289 288 292 295 298 303 304 305 305 300 299 308 303 292 280 260 244 230 224 218 209 210 210 215 209 215 221 221 222 221 223 223 225 227 228 230 234 235 239 241 242 244
300 297 294 297 295 298 297 299 305 307 307 305 302 304 310 306 295 276 253 235 223 218 214 207 205 205 212 207 211 216 220 220 222 223 226 227 229 226 230 233 235 236 240 236 238
300 296 297 297 298 301 301 303 307 309 308 306 306 313 314 307 293 270 247 229 217 212 210 205 205 203 205 206 210 215 219 219 220 224 227 228 230 230 230 230 234 239 238 241 243
300 294 295 297 300 301 303 307 310 311 311 311 308 319 316 308 291 264 239 224 214 211 206 203 205 204 205 204 209 215 220 220 220 223 226 228 230 231 232 233 231 234 236 239 240
301 295 294 297 300 301 306 308 312 312 312 313 314 322 318 309 289 256 233 220 212 207 202 203 203 203 200 205 208 208 215 221 217 220 223 227 229 230 233 233 234 235 236 232 234
296 297 295 298 300 303 307 310 313 314 317 314 320 325 321 309 284 247 226 216 207 203 201 201 199 204 203 202 206 204 212 220 220 217 223 225 228 230 232 234 236 236 237 240 237
296 295 296 299 301 305 309 313 314 316 317 318 324 329 323 310 278 239 222 212 203 200 200 197 199 202 201 197 200 205 208 215 222 222 222 226 228 230 233 237 238 239 239 240 242
294 292 295 298 303 307 311 313 315 318 318 322 328 330 324 311 274 231 218 209 201 198 197 198 199 201 196 198 200 205 208 214 220 225 223 225 228 230 234 235 239 239 240 242 245
293 294 295 300 303 309 312 313 316 320 320 325 330 330 325 311 273 226 216 205 197 197 197 196 200 198 196 196 202 205 210 212 220 226 224 223 226 231 234 237 238 241 240 243 246
289 292 294 300 305 312 313 316 319 321 323 326 331 330 326 310 268 233 212 205 198 196 196 197 202 200 199 199 203 207 209 213 217 223 228 227 227 229 234 236 238 240 243 245 246
284 292 297 306 309 312 315 320 323 321 324 328 331 331 324 308 267 231 212 205 199 197 198 200 203 204 202 200 204 209 207 210 211 218 222 230 231 229 233 235 238 242 243 244 247
285 293 301 307 312 314 321 323 324 323 325 329 332 330 323 305 267 233 214 206 202 200 201 203 204 206 203 202 207 209 211 209 212 214 221 223 229 230 230 234 236 239 243 245 248
293 302 304 311 314 318 322 325 326 323 327 330 334 330 321 304 269 231 217 210 204 203 203 204 205 207 207 206 208 211 213 212 215 215 219 220 225 230 232 235 236 240 244 247 250
296 300 307 314 319 320 323 327 326 323 327 331 334 331 320 301 263 231 215 211 206 206 206 206 206 207 208 208 210 213 214 215 218 220 222 223 226 230 235 238 239 241 244 247 250
288 297 313 319 321 321 324 329 329 327 330 335 335 333 322 301 263 233 216 211 209 208 208 208 208 207 209 211 210 213 215 218 219 223 224 228 231 234 237 238 241 245 246 247 249
Height
10720 10718 10717 10716 10714 10712 10713 10713 10712 10713 10714 10715 10719 10721 10724 10727 10729 10734 10738 10741 10744 10749 10754 10763 10768 10772 10779 10786 10792 10798 10805 10813 10820 10825 10831 10837 10842 10845 10849 10852 10857 10860 10860 10861 10862
10713 10710 10708 10707 10706 10705 10703 10703 10703 10702 10702 10703 10705 10709 10709 10710 10713 10718 10717 10724 10729 10734 10741 10751 10756 10764 10769 10774 10782 10790 10796 10803 10812 10814 10822 10828 10833 10839 10843 10845 10849 10854 10854 10856 10857
10705 10703 10701 10698 10697 10695 10694 10693 10694 10695 10693 10694 10693 10692 10695 10697 10699 10701 10702 10708 10717 10720 10722 10733 10743 10752 10756 10763 10772 10781 10785 10793 10803 10806 10812 10819 10824 10832 10835 10838 10841 10848 10848 10850 10851
10695 10693 10691 10688 10686 10684 10683 10681 10680 10681 10682 10679 10678 10679 10677 10680 10684 10682 10685 10688 10696 10705 10707 10714 10724 10736 10744 10754 10759 10767 10771 10782 10792 10797 10799 10808 10816 10824 10825 10828 10834 10840 10841 10844 10846
10683 10681 10679 10677 10675 10673 10670 10669 10666 10665 10663 10663 10662 10660 10662 10663 10659 10663 10666 10674 10678 10684 10692 10696 10704 10717 10730 10740 10743 10755 10758 10771 10779 10785 10789 10796 10805 10814 10815 10819 10829 10832 10835 10837 10839
10672 10670 10667 10664 10662 10659 10658 10655 10653 10650 10649 10647 10646 10643 10642 10640 10636 10644 10649 10655 10659 10660 10664 10676 10686 10697 10710 10720 10730 10740 10744 10755 10764 10771 10776 10786 10795 10802 10805 10810 10820 10823 10827 10829 10832
10660 10658 10654 10651 10649 10645 10643 10641 10638 10635 10632 10630 10628 10625 10620 10615 10617 10624 10624 10625 10628 10633 10639 10650 10661 10672 10690 10700 10714 10721 10727 10738 10748 10758 10765 10775 10786 10791 10794 10801 10810 10815 10819 10821 10823
10647 10645 10640 10638 10634 10631 10627 10625 10622 10618 10614 10611 10608 10605 10596 10593 10588 10593 10593 10595 10597 10604 10612 10619 10633 10650 10665 10681 10690 10702 10709 10722 10737 10744 10755 10764 10774 10780 10785 10790 10798 10806 10809 10813 10815
10634 10630 10626 10623 10619 10615 10612 10608 10604 10598 10594 10588 10584 10579 10573 10565 10564 10560 10560 10561 10567 10574 10583 10591 10605 10626 10640 10657 10666 10678 10697 10715 10720 10733 10740 10751 10759 10770 10773 10779 10787 10795 10800 10803 10805
10620 10616 10612 10608 10605 10600 10596 10592 10585 10578 10572 10564 10558 10551 10539 10535 10532 10524 10524 10523 10534 10541 10552 10569 10578 10598 10617 10635 10649 10667 10683 10696 10709 10720 10728 10739 10746 10755 10762 10769 10775 10783 10788 10792 10795
10605 10601 10597 10593 10589 10585 10580 10574 10567 10558 10551 10542 10533 10522 10511 10504 10495 10489 10490 10492 10500 10512 10528 10542 10554 10578 10595 10616 10625 10644 10660 10679 10690 10700 10713 10725 10730 10740 10750 10758 10766 10771 10777 10780 10784
10592 10588 10583 10578 10573 10569 10564 10557 10549 10541 10524 10521 10508 10493 10486 10474 10464 10458 10455 10459 10467 10481 10490 10514 10533 10559 10569 10599 10610 10625 10641 10660 10672 10682 10697 10710 10716 10726 10737 10747 10753 10760 10764 10767 10776
10579 10574 10569 10563 10558 10553 10547 10540 10531 10522 10510 10499 10487 10474 10463 10448 10436 10428 10427 10432 10440 10453 10471 10493 10514 10529 10546 10574 10590 10605 10626 10645 10660 10673 10684 10693 10696 10712 10723 10732 10744 10748 10752 10756 10765
10564 10560 10554 10548 10543 10536 10529 10522 10513 10505 10491 10479 10465 10452 10440 10424 10412 10404 10405 10409 10420 10434 10450 10476 10491 10509 10528 10559 10574 10594 10611 10629 10645 10653 10666 10676 10686 10697 10709 10719 10730 10738 10741 10744 10752
10550 10544 10539 10533 10527 10521 10513 10505 10495 10485 10473 10461 10444 10434 10418 10403 10392 10386 10388 10394 10403 10413 10434 10458 10476 10496 10519 10543 10559 10577 10589 10608 10627 10638 10648 10657 10666 10682 10689 10703 10717 10726 10731 10734 10736
10535 10530 10524 10519 10513 10506 10499 10490 10479 10468 10456 10442 10428 10416 10399 10385 10376 10372 10374 10380 10388 10402 10427 10447 10462 10487 10510 10526 10546 10560 10577 10593 10608 10617 10625 10641 10654 10664 10678 10694 10700 10713 10718 10723 10722
10521 10515 10509 10504 10498 10491 10484 10475 10464 10451 10440 10426 10414 10400 10384 10371 10363 10359 10362 10369 10382 10397 10418 10434 10455 10478 10497 10513 10534 10549 10561 10570 10582 10596 10610 10627 10636 10658 10664 10674 10689 10699 10704 10709 10712
10508 10501 10495 10491 10485 10478 10471 10461 10451 10436 10424 10410 10401 10386 10370 10360 10353 10350 10353 10361 10374 10391 10409 10427 10451 10464 10488 10511 10526 10538 10545 10551 10564 10581 10600 10612 10621 10641 10651 10661 10671 10682 10691 10698 10702
10494 10489 10483 10478 10473 10466 10459 10449 10438 10423 10409 10396 10386 10372 10359 10348 10344 10342 10345 10352 10366 10384 10405 10422 10437 10456 10480 10497 10515 10520 10528 10534 10546 10569 10583 10598 10612 10627 10637 10645 10656 10666 10675 10682 10688
10481 10477 10472 10466 10461 10454 10446 10437 10425 10411 10396 10385 10372 10360 10347 10340 10335 10335 10339 10348 10362 10378 10395 10414 10430 10446 10472 10486 10501 10507 10516 10526 10535 10548 10568 10583 10598 10612 10620 10630 10640 10649 10658 10665 10672
10470 10466 10462 10457 10451 10443 10435 10425 10414 10401 10387 10376 10361 10348 10337 10331 10328 10328 10333 10343 10356 10371 10387 10405 10417 10434 10453 10473 10488 10495 10505 10517 10527 10537 10553 10570 10586 10595 10604 10615 10625 10634 10642 10650 10656
10459 10456 10452 10448 10441 10434 10424 10414 10403 10388 10378 10366 10352 10339 10329 10323 10321 10323 10327 10336 10345 10363 10378 10393 10402 10422 10439 10457 10472 10482 10494 10507 10520 10530 10539 10558 10571 10581 10593 10604 10611 10619 10625 10632 10638
10449 10447 10444 10439 10432 10425 10414 10405 10392 10378 10370 10356 10343 10331 10321 10316 10314 10316 10321 10328 10340 10355 10364 10377 10394 10408 10431 10446 10460 10472 10485 10497 10508 10517 10531 10543 10559 10570 10579 10588 10597 10603 10609 10616 10621
10440 10439 10435 10432 10425 10416 10406 10396 10382 10370 10360 10347 10334 10322 10313 10309 10307 10309 10314 10321 10331 10344 10361 10375 10381 10399 10423 10438 10449 10463 10474 10485 10497 10508 10519 10528 10538 10553 10562 10571 10583 10589 10596 10604 10608
10434 10432 10429 10424 10417 10408 10399 10388 10374 10363 10351 10338 10326 10315 10306 10302 10300 10302 10307 10315 10325 10336 10350 10363 10381 10402 10416 10426 10438 10451 10461 10476 10486 10495 10506 10516 10523 10537 10549 10560 10572 10578 10585 10591 10593
10427 10426 10423 10417 10410 10401 10393 10382 10367 10355 10345 10331 10318 10308 10300 10295 10294 10296 10302 10308 10319 10328 10340 10357 10375 10389 10406 10420 10431 10441 10453 10463 10471 10484 10496 10503 10512 10525 10536 10546 10557 10564 10568 10574 10577
10421 10420 10416 10411 10404 10396 10387 10375 10362 10350 10336 10324 10311 10301 10295 10290 10289 10290 10296 10302 10311 10320 10334 10348 10365 10382 10395 10408 10420 10433 10444 10451 10460 10472 10486 10500 10503 10519 10529 10534 10540 10548 10551 10554 10560